Location: Eimen
(51.8766°N, 9.7806°E)
Time: 10:12:02
(UTC+00:00)

Cosmos 724 - Pass Details

Date: 23 May 2024
Orbit: 864 x 930 km, 65.6° (Epoch: 18 June)

Event Time Altitude Azimuth Distance (km) Brightness Sun altitude
Exits shadow 00:12:03 23° 220° (SW) 1,808 5.4 -16.5°
Maximum altitude 00:15:56 89° 311° (NW) 883 4.3 -16.4°
Drops below altitude 10° 00:21:48 10° 41° (NE) 2,523 7.7 -16.1°
Sets 00:24:16 0° 42° (NE) 3,459 8.6 -16.0°
